Regional Weather Roundup
Issued by NWS

Home | Current Version | Previous Version | Graphics & Text | Print | Product List | Glossary Off
Versions: 1 2 3 4 5 6 7 8 9 10 11 12 13 14 15 16 17 18 19 20 21 22 23 24 25 26 27 28 29 30 31 32 33 34 35 36 37 38 39 40 41 42 43 44 45 46 47 48 49 50

000
ASUS45 KPSR 201510
RWRAZ

ARIZONA REGIONAL HOURLY WEATHER ROUNDUP
NATIONAL WEATHER SERVICE PHOENIX AZ
800 AM MST WED AUG 20 2014

NOTE: FAIR INDICATES FEW OR NO CLOUDS BELOW 12,000 FEET WITH NO
SIGNIFICANT WEATHER AND/OR OBSTRUCTIONS TO VISIBILITY.

AZZ001>003-036-201600-
NORTHWEST ARIZONA

CITY           SKY/WX    TMP DP  RH WIND       PRES   REMARKS
BULLHEAD CITY  MOSUNNY   77  68  73 N3        29.87S
KINGMAN        SUNNY     68  59  73 SW6       30.03R
$$

AZZ004>008-015-016-018-201600-
NORTH CENTRAL ARIZONA

CITY           SKY/WX    TMP DP  RH WIND       PRES   REMARKS
GRAND CANYON   MOSUNNY   59  54  83 SW9       30.24R
WILLIAMS       SUNNY     61  54  77 S12       30.29S
PRESCOTT       SUNNY     63  56  78 SE3       30.15R
FLAGSTAFF      MOSUNNY   59  51  75 SW7       30.27R
PAYSON         PTSUNNY   61  59  94 CALM      30.18R
PAGE           SUNNY     71  59  65 CALM      30.06R
$$

AZZ009>014-017-201600-
NORTHEAST ARIZONA

CITY           SKY/WX    TMP DP  RH WIND       PRES   REMARKS
WINSLOW        SUNNY     67  58  72 E5        30.14R
SAINT JOHNS    MOSUNNY   67  53  61 W14       30.18R
SHOW LOW       CLOUDY    59  50  72 S8        30.25R
$$

AZZ023-201600-
GREATER PHOENIX AREA

CITY           SKY/WX    TMP DP  RH WIND       PRES   REMARKS
PHOENIX        MOSUNNY   79  66  64 E8        29.91R
BUCKEYE          N/A     81  64  57 E12       29.92R
GLENDALE       MOSUNNY   84  66  54 CALM      29.93R
LUKE AFB       NOT AVBL
DEER VALLEY    SUNNY     79  64  60 NE5       29.94R
SCOTTSDALE     SUNNY     79  66  64 CALM      29.95R
MESA-GATEWAY   MOSUNNY   79  66  65 SE6       29.95R
CHANDLER       MOSUNNY   81  66  61 CALM      29.93R
$$

AZZ027-028-201600-
SOUTHWEST MARICOPA COUNTY AND PINAL COUNTY

CITY           SKY/WX    TMP DP  RH WIND       PRES   REMARKS
CASA GRANDE    SUNNY     79  64  61 CALM      29.95R
GILA BEND      SUNNY     84  64  51 CALM      29.90R
$$

AZZ503-504-507>509-201600-
SOUTHEAST ARIZONA

CITY           SKY/WX    TMP DP  RH WIND       PRES   REMARKS
TUCSON         SUNNY     76  63  64 SE8       30.03R
DAVIS-MONTHAN  SUNNY     76  64  65 SE5       30.01S
RYAN FIELD       N/A     75  66  73 E7        30.01S
NOGALES        SUNNY     69  61  75 CALM      30.09R
SIERRA VISTA   MOSUNNY   66  63  88 NE3       30.14R
DOUGLAS        SUNNY     66  62  87 CALM      30.12R
SAFFORD        SUNNY     69  64  84 VRB3      30.05R
$$

AZZ020-021-025-026-031-201600-
SOUTHWEST ARIZONA

CITY           SKY/WX    TMP DP  RH WIND       PRES   REMARKS
YUMA           PTSUNNY   89  62  40 SE12      29.83R
$$

CAZ031-033-041-043-047-048-061-201600-
SOUTHERN CALIFORNIA

CITY           SKY/WX    TMP DP  RH WIND       PRES   REMARKS
DOWNTOWN L.A.  CLOUDY    70  58  65 CALM      29.91S
L.A. AIRPORT   PTSUNNY   71  58  63 E3        29.92S
SAN DIEGO      PTSUNNY   70  59  68 SW5       29.94R
BURBANK        CLOUDY    67  58  72 VRB3      29.92F
ONTARIO        MOSUNNY   66  59  78 SW3       29.93R
RIVERSIDE      PTSUNNY   66  59  78 CALM      29.94R
PALM SPRINGS   PTSUNNY   83  49  30 CALM      29.85R
EL CENTRO NAS  PTSUNNY   84  42  22 S7        29.80S
IMPERIAL       MOSUNNY   81  45  28 S3        29.80R
BLYTHE         PTSUNNY   85  57  38 S10       29.82R
NEEDLES        MOSUNNY   85  62  46 E5        29.87R
$$

NVZ020-UTZ003-201600-
SOUTHERN NEVADA-UTAH

CITY           SKY/WX    TMP DP  RH WIND       PRES   REMARKS
LAS VEGAS      PTSUNNY   79  51  37 SE6       29.89R
SALT LAKE CITY PTSUNNY   63  56  78 S12       30.01R
$$

NMZ009-TXZ055-201600-
NEW MEXICO-WEST TEXAS

CITY           SKY/WX    TMP DP  RH WIND       PRES   REMARKS
ALBUQUERQUE    CLOUDY    70  53  54 CALM      30.11S
EL PASO        MOSUNNY   73  58  59 SW9       30.02R
$$


........................KEY........................
SKY/WX - SKY CONDITION/WEATHER
TMP    - TEMPERATURE IN FAHRENHEIT
DP     - DEW POINT IN FAHRENHEIT
RH     - RELATIVE HUMIDITY IN PERCENT
WIND   - DIRECTION AND SPEED IN MILES PER HOUR (MPH)
VRB    - VARIABLE WIND DIRECTION
PRES   - MEAN SEA LEVEL PRESSURE IN INCHES OF MERCURY
         F - FALLING PRESSURE   R - RISING PRESSURE
         S - STEADY PRESSURE
VSB    - VISIBILITY IN MILES
HX     - HEAT INDEX IN FAHRENHEIT
WCI    - WIND CHILL INDEX IN FAHRENHEIT
TC     - TEMPERATURE IN CELSIUS WHICH IS ALSO KNOWN AS
         TEMPERATURE IN CENTIGRADE
AFB    - AIR FORCE BASE
         LUKE AFB IS LUKE AIR FORCE BASE
         DAVIS-MONTHAN IS DAVIS-MONTHAN AIR FORCE BASE
NAS    - NAVAL AIR STATION
         EL CENTRO NAS IS EL CENTRO NAVAL AIR STATION
N/A    - NOT AVAILABLE


USA.gov is the U.S. government's official web portal to all federal, state and local government web resources and services.